Regional Weather Roundup
Issued by NWS Portland, ME

Current Version | Previous Version | Text Only | Print | Product List | Glossary On
Versions: 1 2 3 4 5 6 7 8 9 10 11 12 13 14 15 16 17 18 19 20 21 22 23 24 25 26 27 28 29 30 31 32 33 34 35 36 37 38 39 40 41 42 43 44 45 46 47 48 49 50
000
ASUS41 KGYX 280210
RWRGYX
WEATHER ROUNDUP FOR MAINE AND NEW HAMPSHIRE
NATIONAL WEATHER SERVICE GRAY ME
900 PM EST FRI FEB 27 2015

MEZ002-005-006-010-012-015-018-020-021-024-026-027-029-280300-
MAINE

CITY           SKY/WX    TMP DP  RH WIND       PRES   REMARKS
PORTLAND       CLEAR     15   3  59 NW6       30.45R
SANFORD        CLEAR      7 -15  36 W3        30.44R
BAR HARBOR     CLEAR     12   0  57 W6        30.41R
WISCASSET      CLEAR      2  -3  80 CALM      30.45R
ROCKLAND       CLEAR      3  -9  55 W6        30.42R
FRYEBURG       PTCLDY    15 -10  32 W3        30.41R
LEWISTONAUBURN CLEAR      7 -13  40 CALM      30.41R
AUGUSTA        CLEAR     13 -10  35 N6        30.42R
WATERVILLE     CLEAR     10 -11  37 CALM      30.38R
BANGOR         CLEAR      7  -9  48 W5        30.41R
GREENVILLE       N/A      5 -10  50 NW9       30.26R
MILLINOCKET    CLEAR     10  -9  42 W9        30.37R
HOULTON        CLEAR      6 -11  45 W7        30.32R
PRESQUE ISLE   CLEAR      7 -15  36 W7        30.31R
FRENCHVILLE    CLEAR      4 -10  52 SW7       30.23R
CARIBOU        CLEAR      6 -10  47 W7        30.29R
$$

NHZ002-005-008-009-011-012-014-280300-
NEW HAMPSHIRE

CITY           SKY/WX    TMP DP  RH WIND       PRES   REMARKS
PORTSMOUTH     CLEAR     16  -8  34 NW7       30.44R
ROCHESTER      CLEAR     16  -8  34 NW8       30.44R
NASHUA         CLEAR     12  -6  44 CALM      30.47R
MANCHESTER     CLEAR     17  -3  41 NW5       30.45R
CONCORD        CLEAR      7  -5  57 CALM      30.45R
LACONIA        CLEAR      7  -8  51 CALM      30.41R
PLYMOUTH       FAIR       1  -4  79 CALM      30.44R
BERLIN         CLEAR     -8 -17  64 CALM      30.37R
WHITEFIELD     CLEAR     -7 -13  75 CALM      30.40R
JAFFREY        CLEAR     -1  -9  68 CALM      30.41R
KEENE          CLEAR      7  -2  66 CALM      30.46R
LEBANON        FAIR      -3  -9  75 CALM      30.45R
MT WASHINGTON  PTCLDY   -11 -20  64 NW38        N/A  WCI -44
$$

VTZ005-007-008-280300-
VERMONT

CITY           SKY/WX    TMP DP  RH WIND       PRES   REMARKS
ST JOHNSBURY     N/A      1  -8  66 MISG      30.44R
MONTPELIER     CLEAR      1 -10  60 CALM      30.44R
BURLINGTON     CLEAR      7  -6  55 NW7       30.50R
$$

MAZ007-012-024-CTZ003-RIZ002-NYZ038-NYZ072-280300-
SOUTHERN NEW ENGLAND AND NY

CITY           SKY/WX    TMP DP  RH WIND       PRES   REMARKS
BOSTON         CLEAR     23  -3  32 NW9       30.48R
WORCESTER      CLEAR     14  -5  42 NW12      30.41R WCI   0
NANTUCKET      CLEAR     22  11  62 W8        30.46R
PROVIDENCE     CLEAR     21  -2  36 NW8       30.48R
HARTFORD       CLEAR     19  -3  38 N5        30.51R
ALBANY         CLEAR     14  -1  51 NW13      30.55R WCI   0
NEW YORK CITY  CLEAR     25   4  40 NW15G23   30.55R WCI  13
$$

ANZ081-ANZ082-ANZ150-NHZ014-MEZ023>029-280300-
COASTAL MARINE OBSERVATIONS

STATION/POSITION TIME  TEMP    WIND        PRES    WAVE
                       AIR SEA DIR/SP/G            HT/PER
                 (UTC) (F)     (DEG/KT/KT) (MB)    (FT/S)
MOUNT DESERT ROC 0200   25                 1029.1R
MATINICUS ROCK   0200   24     300/ 17/ 19 1030.0R
WELLS            0112   19     300/  4/  8 1030.1R
ISLE OF SHOALS   0200   23     310/ 18/ 20 1030.6R
JEFFREYS LEDGE   0051      40                N/A     4/11
CASHES LEDGE BUO 0150   26 39              1029.7R   5/10
$$

.............KEY..............
   WCI - WIND CHILL
   TC  - TEMPERATURE IN CELSIUS
   VSB - VISIBILITY IN MILES
   HX  - HEAT INDEX
   FAIR- INDICATES FEW OR NO CLOUDS BELOW 12,000 FT, WITH NO
         SIGNIFICANT WEATHER AND/OR OBSTRUCTIONS TO VISIBILITY.




USA.gov is the U.S. government's official web portal to all federal, state and local government web resources and services.